sat.trackr.live / text

‹ back to catalog

STARLINK-31958

NORAD 59924 · 2024-106C

PAYLOAD ACTIVE UNKNOWN

§ Identity

Operator
Country
US
Launch date
2024-06-01
Launch site
AFETR
Launch vehicle
Mass (kg)
RCS (m²)

Purposes: comms

External: N2YO · Heavens-Above · Gunter

§ Orbital elements

Epoch: 2026-05-24T14:57:38.854368Z

Period
94.27 min
Inclination
43.0027°
Eccentricity
0.0001691
Mean motion
15.27575515 rev/d
Perigee alt
481.9 km
Apogee alt
484.2 km
Semi-major
6,861.2 km
B*
2.2886e-5
RAAN
249.1809°
Arg perigee
273.5607°
Mean anomaly
86.5051°
Rev number
11,230

§ Raw data

STARLINK-319581 59924U 24106C   26144.62336637  .00000367  00000+0  22886-4 0  99902 59924  43.0027 249.1809 0001691 273.5607  86.5051 15.27575515112302

JSON: /api/v1/satellites/59924 · /tle

For live sub-satellite position, see the globe view (requires WebGL).

§ Visibility from observer

Set your observer location to see the next 7 days of passes ≥ 10°. The values pass through the URL so the page stays shareable.

No JS? Fill the form by hand. The geolocation button needs JavaScript.